FW7745 Weather Reports


time (UTC)temp
C
wind
direction
speed
KPH
gust
KPH
rain 1hr
cm
rain 24hr
cm
rain mn
cm
humidity
%
barometer
mb
20260510095159 12 170 0.0 0.0 0.00 0.00 0.00 95 1013.4
20260510094657 12 184 0.0 0.0 0.00 0.00 0.00 95 1013.5
20260510094154 12 229 0.0 0.0 0.00 0.00 0.00 95 1013.7
20260510093650 12 229 0.0 0.0 0.00 0.00 0.00 95 1013.7
20260510093147 12 229 0.0 0.0 0.00 0.00 0.00 95 1013.5
20260510092643 12 230 0.0 0.0 0.00 0.00 0.00 95 1013.5
20260510092138 12 221 0.0 0.0 0.00 0.00 0.00 95 1013.6
20260510091635 12 141 0.0 0.0 0.00 0.00 0.00 95 1013.6
20260510091131 12 158 0.0 0.0 0.00 0.00 0.00 95 1013.7
20260510090628 13 141 0.0 0.0 0.00 0.00 0.00 94 1013.5
20260510090125 13 141 0.0 0.0 0.00 0.00 0.00 94 1013.3
20260510085620 13 174 0.0 0.0 0.00 0.00 0.00 94 1013.6
20260510085115 13 159 0.0 0.0 0.00 0.00 0.00 94 1013.6
20260510084612 13 169 0.0 0.0 0.00 0.00 0.00 94 1013.2
20260510084109 13 166 0.0 0.0 0.00 0.00 0.00 95 1013.2
20260510083606 13 166 0.0 0.0 0.00 0.00 0.00 95 1013.1
20260510083102 13 282 0.0 0.0 0.00 0.00 0.00 94 1013.4
20260510082558 13 324 0.0 0.0 0.00 0.00 0.00 94 1013.3
20260510082054 13 137 0.0 0.0 0.00 0.00 0.00 94 1013.1
20260510081549 13 137 0.0 0.0 0.00 0.00 0.00 94 1013.1
20260510081045 13 148 0.0 0.0 0.00 0.00 0.00 94 1012.9
20260510080544 13 213 0.0 0.0 0.00 0.00 0.00 94 1012.8
20260510080041 13 307 0.0 0.0 0.00 0.00 0.00 94 1012.7
20260510075539 13 307 0.0 0.0 0.00 0.00 0.00 94 1012.8
20260510075035 13 321 0.0 0.0 0.00 0.00 0.00 94 1012.3
20260510074533 13 327 0.0 0.0 0.00 0.00 0.00 94 1012.6
20260510074028 13 298 0.0 0.0 0.00 0.00 0.00 93 1012.4
20260510073524 13 302 0.0 0.0 0.00 0.00 0.00 93 1012.5
20260510073022 13 327 0.0 0.0 0.00 0.00 0.00 93 1012.5
20260510072518 13 304 0.0 0.0 0.00 0.00 0.00 93 1012.7
20260510072014 13 302 0.0 0.0 0.00 0.00 0.00 93 1012.5
20260510071510 13 183 0.0 0.0 0.00 0.00 0.00 93 1012.6
20260510071009 13 163 0.0 0.0 0.00 0.00 0.00 93 1012.2
20260510070505 13 148 0.0 0.0 0.00 0.00 0.00 92 1012.2
20260510070001 13 156 0.0 0.0 0.00 0.00 0.00 92 1012.2
20260510065458 13 233 0.0 0.0 0.00 0.00 0.00 92 1012.2
20260510064954 13 296 0.0 0.0 0.00 0.00 0.00 92 1012.2
20260510064451 13 270 0.0 0.0 0.00 0.00 0.00 92 1012.2
20260510063948 14 153 0.0 0.0 0.00 0.00 0.00 91 1012.0
20260510063444 14 227 0.0 0.0 0.00 0.00 0.00 91 1012.1
20260510062943 14 199 0.0 0.0 0.00 0.00 0.00 91 1012.1
20260510062443 14 145 0.0 0.0 0.00 0.00 0.00 91 1012.3
20260510061938 14 150 0.0 0.0 0.00 0.00 0.00 91 1012.2
20260510061435 14 247 0.0 0.0 0.00 0.00 0.00 90 1012.2
20260510060931 14 247 0.0 0.0 0.00 0.00 0.00 90 1012.2
20260510060428 15 327 0.0 0.0 0.00 0.00 0.00 90 1012.0
20260510055925 15 308 0.0 0.0 0.00 0.00 0.00 89 1012.1
20260510055421 15 316 0.0 0.0 0.00 0.00 0.00 89 1012.1
20260510054919 15 332 4.8 4.8 0.00 0.00 0.00 89 1012.1
20260510054414 15 289 0.0 0.0 0.00 0.00 0.00 89 1012.2
20260510053909 15 279 0.0 0.0 0.00 0.00 0.00 89 1012.1
20260510053405 15 305 0.0 0.0 0.00 0.00 0.00 89 1012.0
20260510052901 15 268 0.0 0.0 0.00 0.00 0.00 88 1012.1
20260510052357 15 324 0.0 0.0 0.00 0.00 0.00 88 1012.2
20260510051854 15 288 0.0 0.0 0.00 0.00 0.00 88 1012.0
20260510051350 15 186 0.0 0.0 0.00 0.00 0.00 88 1012.1
20260510050847 15 247 0.0 0.0 0.00 0.00 0.00 87 1012.1
20260510050344 15 285 0.0 0.0 0.00 0.00 0.00 87 1011.9
20260510045841 15 219 0.0 0.0 0.00 0.00 0.00 87 1012.1
20260510045338 15 258 0.0 0.0 0.00 0.00 0.00 86 1012.1
20260510044835 15 247 0.0 0.0 0.00 0.00 0.00 86 1012.1
20260510044332 15 194 0.0 0.0 0.00 0.00 0.00 85 1012.0
20260510043828 15 149 1.6 3.2 0.00 0.00 0.00 86 1012.4
20260510043324 15 263 0.0 0.0 0.00 0.00 0.00 85 1012.3
20260510042822 15 276 0.0 0.0 0.00 0.00 0.00 85 1012.1
20260510042318 16 300 0.0 0.0 0.00 0.00 0.00 84 1012.1
20260510041814 16 314 0.0 0.0 0.00 0.00 0.00 84 1012.3
20260510041312 16 234 0.0 0.0 0.00 0.00 0.00 84 1012.2
20260510040809 16 180 0.0 1.6 0.00 0.00 0.00 83 1012.1
20260510040305 16 327 0.0 0.0 0.00 0.00 0.00 83 1012.2
20260510035801 16 257 0.0 0.0 0.00 0.00 0.00 82 1012.1
20260510035257 16 280 0.0 0.0 0.00 0.00 0.00 81 1011.9
20260510034752 16 225 0.0 0.0 0.00 0.00 0.00 81 1012.0
20260510034250 16 338 0.0 0.0 0.00 0.00 0.00 81 1012.0
20260510033747 17 327 1.6 1.6 0.00 0.00 0.00 80 1011.9
20260510033244 17 338 0.0 1.6 0.00 0.00 0.00 80 1012.1
20260510032740 17 338 0.0 0.0 0.00 0.00 0.00 80 1012.0
20260510032237 17 338 0.0 0.0 0.00 0.00 0.00 79 1011.8
20260510031732 17 338 0.0 0.0 0.00 0.00 0.00 79 1011.9
20260510031228 17 338 0.0 0.0 0.00 0.00 0.00 78 1011.9
20260510030727 17 338 0.0 1.6 0.00 0.00 0.00 78 1011.7
20260510030225 17 338 0.0 0.0 0.00 0.00 0.00 78 1011.8
20260510025722 17 338 0.0 0.0 0.00 0.00 0.00 77 1011.9
20260510025220 17 338 0.0 0.0 0.00 0.00 0.00 77 1011.9
20260510024716 18 338 0.0 0.0 0.00 0.00 0.00 76 1011.6
20260510024214 18 338 0.0 0.0 0.00 0.00 0.00 76 1011.6
20260510023708 18 338 0.0 0.0 0.00 0.00 0.00 75 1011.7
20260510023206 18 338 0.0 1.6 0.00 0.00 0.00 75 1011.6
20260510022702 18 326 0.0 0.0 0.00 0.00 0.00 74 1011.6
20260510022156 19 338 0.0 0.0 0.00 0.00 0.00 74 1011.6
20260510021652 19 338 1.6 3.2 0.00 0.00 0.00 73 1011.7
20260510021149 19 302 0.0 0.0 0.00 0.00 0.00 73 1011.4
20260510020644 19 9 0.0 0.0 0.00 0.00 0.00 73 1011.4
20260510020139 19 71 1.6 1.6 0.00 0.00 0.00 73 1011.4
20260510015635 19 286 0.0 0.0 0.00 0.00 0.00 73 1011.3
20260510015132 19 313 0.0 0.0 0.00 0.00 0.00 73 1011.3
20260510014627 19 325 1.6 1.6 0.00 0.00 0.00 73 1011.1
20260510014125 19 293 1.6 3.2 0.00 0.00 0.00 73 1011.4
20260510013625 19 297 0.0 0.0 0.00 0.00 0.00 72 1011.1
20260510013121 19 283 0.0 0.0 0.00 0.00 0.00 71 1010.8
20260510012621 19 313 0.0 0.0 0.00 0.00 0.00 71 1010.8
20260510012117 19 299 0.0 0.0 0.00 0.00 0.00 70 1010.8
20260510011617 20 262 0.0 0.0 0.00 0.00 0.00 70 1010.7
20260510011113 20 297 0.0 0.0 0.00 0.00 0.00 70 1010.7
20260510010609 20 300 0.0 0.0 0.00 0.00 0.00 70 1010.8
20260510010107 20 290 1.6 1.6 0.00 0.00 0.00 69 1010.5
20260510005602 20 263 0.0 1.6 0.00 0.00 0.00 69 1010.4
20260510005100 20 37 3.2 3.2 0.00 0.00 0.00 68 1010.5
20260510004557 20 136 0.0 0.0 0.00 0.00 0.00 67 1010.4
20260510004055 20 155 0.0 1.6 0.00 0.00 0.00 66 1010.6
20260510003552 20 148 1.6 1.6 0.00 0.00 0.00 65 1010.4
20260510003048 20 147 0.0 0.0 0.00 0.00 0.00 65 1010.5
20260510002543 20 147 0.0 0.0 0.00 0.00 0.00 64 1010.4
20260510002040 20 146 0.0 0.0 0.00 0.00 0.00 63 1010.2
20260510001537 21 147 0.0 0.0 0.00 0.00 0.00 62 1010.2
20260510001036 21 147 0.0 0.0 0.00 0.00 0.00 61 1010.2
20260510000530 22 147 0.0 0.0 0.00 0.00 0.00 60 1010.1
20260510000027 22 147 0.0 0.0 0.00 0.00 0.00 58 1010.0
20260509235524 22 131 0.0 0.0 0.00 0.00 0.00 58 1010.2
20260509235021 22 211 1.6 1.6 0.00 0.00 0.00 57 1009.8
20260509234517 22 190 3.2 4.8 0.00 0.00 0.00 57 1010.0
20260509234015 22 233 3.2 3.2 0.00 0.00 0.00 57 1009.8
20260509233512 22 220 1.6 1.6 0.00 0.00 0.00 57 1010.1
20260509233009 22 207 1.6 1.6 0.00 0.00 0.00 56 1009.7
20260509232501 22 198 1.6 1.6 0.00 0.00 0.00 56 1009.9
20260509231956 23 194 4.8 4.8 0.00 0.00 0.00 56 1009.7
20260509231453 23 164 3.2 4.8 0.00 0.00 0.00 56 1009.7
20260509230951 23 224 1.6 1.6 0.00 0.00 0.00 56 1009.8
20260509230447 23 181 4.8 4.8 0.00 0.00 0.00 56 1009.7
20260509225944 23 218 4.8 4.8 0.00 0.00 0.00 55 1010.0
20260509225440 23 202 4.8 4.8 0.00 0.00 0.00 56 1009.6
20260509224936 23 239 1.6 3.2 0.00 0.00 0.00 55 1009.9
20260509224431 23 168 8.0 9.7 0.00 0.00 0.00 55 1010.0
20260509223929 23 109 4.8 4.8 0.00 0.00 0.00 55 1009.7
20260509223425 23 212 6.4 8.0 0.00 0.00 0.00 55 1009.9
20260509222923 23 201 1.6 3.2 0.00 0.00 0.00 55 1009.8
20260509222418 23 227 4.8 11.3 0.00 0.00 0.00 55 1010.0
20260509221914 23 219 6.4 9.7 0.00 0.00 0.00 55 1009.9
20260509221411 23 201 11.3 12.9 0.00 0.00 0.00 55 1010.0
20260509220907 23 237 1.6 3.2 0.00 0.00 0.00 55 1009.8
20260509220403 23 213 8.0 8.0 0.00 0.00 0.00 55 1009.8
20260509215859 23 184 9.7 11.3 0.00 0.00 0.00 55 1009.8
20260509215355 23 256 3.2 8.0 0.00 0.00 0.00 55 1010.1
20260509214852 23 267 4.8 4.8 0.00 0.00 0.00 55 1009.9
20260509214349 23 152 8.0 9.7 0.00 0.00 0.00 55 1009.8
20260509213846 24 199 6.4 9.7 0.00 0.00 0.00 52 1010.0
20260509213342 23 171 12.9 14.5 0.00 0.00 0.00 53 1009.8
20260509212840 23 193 9.7 11.3 0.00 0.00 0.00 54 1009.9
20260509212337 23 203 4.8 8.0 0.00 0.00 0.00 55 1010.1
20260509211833 23 170 6.4 8.0 0.00 0.00 0.00 55 1010.0
20260509211329 23 166 4.8 8.0 0.00 0.00 0.00 54 1009.9
20260509210825 23 177 9.7 12.9 0.00 0.00 0.00 53 1009.9
20260509210323 23 186 6.4 9.7 0.00 0.00 0.00 53 1009.9
20260509205822 23 171 12.9 14.5 0.00 0.00 0.00 54 1009.8
20260509205317 23 200 3.2 8.0 0.00 0.00 0.00 53 1009.5
20260509204814 22 310 6.4 9.7 0.00 0.00 0.00 55 1009.9
20260509204310 23 224 8.0 11.3 0.00 0.00 0.00 54 1009.7
20260509203806 23 172 8.0 9.7 0.00 0.00 0.00 54 1009.4
20260509203304 23 139 11.3 16.1 0.00 0.00 0.00 53 1009.7
20260509202800 24 145 4.8 4.8 0.00 0.00 0.00 53 1009.5
20260509202256 23 257 8.0 9.7 0.00 0.00 0.00 53 1009.6
20260509201755 24 208 9.7 12.9 0.00 0.00 0.00 54 1009.8
20260509201252 24 176 8.0 11.3 0.00 0.00 0.00 52 1009.9
20260509200749 23 245 3.2 3.2 0.00 0.00 0.00 54 1010.0
20260509200244 23 221 6.4 9.7 0.00 0.00 0.00 54 1010.2
20260509195741 23 191 8.0 9.7 0.00 0.00 0.00 54 1010.0
20260509195236 23 25 1.6 3.2 0.00 0.00 0.00 54 1010.3
20260509194731 23 277 4.8 9.7 0.00 0.00 0.00 56 1010.2
20260509194227 22 172 4.8 4.8 0.00 0.00 0.00 56 1010.5
20260509193724 22 199 4.8 8.0 0.00 0.00 0.00 58 1010.8
20260509193223 22 243 6.4 8.0 0.00 0.00 0.00 58 1010.9
20260509192720 22 236 4.8 4.8 0.00 0.00 0.00 57 1010.8
20260509192215 22 224 4.8 4.8 0.00 0.00 0.00 57 1010.8
20260509191711 22 193 4.8 8.0 0.00 0.00 0.00 58 1010.8
20260509191207 22 237 8.0 11.3 0.00 0.00 0.00 58 1011.1
20260509190703 21 192 8.0 11.3 0.00 0.00 0.00 59 1010.8
20260509190201 22 218 8.0 11.3 0.00 0.00 0.00 58 1010.8
20260509185659 21 242 8.0 9.7 0.00 0.00 0.00 59 1010.6
20260509185154 21 167 8.0 11.3 0.00 0.00 0.00 60 1011.1
20260509184652 21 162 11.3 14.5 0.00 0.00 0.00 59 1011.3
20260509184149 21 218 11.3 14.5 0.00 0.00 0.00 59 1011.4
20260509183645 21 221 8.0 14.5 0.00 0.00 0.00 59 1011.4
20260509183140 21 198 9.7 11.3 0.00 0.00 0.00 59 1011.5
20260509182636 21 206 6.4 11.3 0.00 0.00 0.00 59 1011.5
20260509182134 21 136 3.2 3.2 0.00 0.00 0.00 59 1011.6
20260509181632 21 156 8.0 11.3 0.00 0.00 0.00 58 1011.5
20260509181129 21 193 9.7 12.9 0.00 0.00 0.00 58 1011.7
20260509180626 21 196 4.8 4.8 0.00 0.00 0.00 58 1011.8
20260509180122 21 183 4.8 4.8 0.00 0.00 0.00 58 1012.0
20260509175618 21 203 16.1 24.1 0.00 0.00 0.00 58 1012.1
20260509175115 21 169 4.8 8.0 0.00 0.00 0.00 57 1012.1
20260509174611 21 129 12.9 17.7 0.00 0.00 0.00 56 1012.1
20260509174106 22 296 8.0 9.7 0.00 0.00 0.00 55 1012.1
20260509173602 22 202 6.4 9.7 0.00 0.00 0.00 55 1012.0
20260509173058 22 204 3.2 4.8 0.00 0.00 0.00 55 1012.2
20260509172555 21 195 9.7 12.9 0.00 0.00 0.00 57 1012.1
20260509172050 21 149 4.8 4.8 0.00 0.00 0.00 57 1012.1
20260509171547 21 177 11.3 17.7 0.00 0.00 0.00 57 1012.1
20260509171043 21 190 6.4 9.7 0.00 0.00 0.00 57 1012.1
20260509170539 21 146 4.8 4.8 0.00 0.00 0.00 58 1012.2
20260509170035 21 152 9.7 12.9 0.00 0.00 0.00 59 1012.1
20260509165534 21 170 11.3 14.5 0.00 0.00 0.00 58 1012.4
20260509165029 21 334 6.4 9.7 0.00 0.00 0.00 58 1012.2
20260509164526 21 124 4.8 8.0 0.00 0.00 0.00 58 1012.3
20260509164021 20 239 4.8 4.8 0.00 0.00 0.00 59 1012.3
20260509163520 20 271 6.4 8.0 0.00 0.00 0.00 59 1012.4
20260509163014 20 246 3.2 4.8 0.00 0.00 0.00 59 1012.4
20260509162512 20 262 4.8 8.0 0.00 0.00 0.00 60 1012.2
20260509162008 20 210 8.0 11.3 0.00 0.00 0.00 60 1012.3
20260509161505 20 240 12.9 16.1 0.00 0.00 0.00 60 1012.4
20260509160959 20 253 4.8 8.0 0.00 0.00 0.00 60 1012.2
20260509160456 20 257 12.9 16.1 0.00 0.00 0.00 60 1012.4
20260509155956 20 235 4.8 8.0 0.00 0.00 0.00 60 1012.4
20260509155453 21 235 8.0 11.3 0.00 0.00 0.00 59 1012.5
20260509154949 21 171 12.9 16.1 0.00 0.00 0.00 59 1012.5
20260509154445 21 158 8.0 11.3 0.00 0.00 0.00 59 1012.7
20260509153943 20 351 3.2 3.2 0.00 0.00 0.00 60 1012.7
20260509153440 20 214 8.0 11.3 0.00 0.00 0.00 59 1012.6
20260509152937 20 201 4.8 4.8 0.00 0.00 0.00 61 1012.8
20260509152432 20 195 9.7 17.7 0.00 0.00 0.00 60 1012.6
20260509151930 19 153 8.0 9.7 0.00 0.00 0.00 62 1013.0
20260509151426 19 217 6.4 9.7 0.00 0.00 0.00 62 1012.9
20260509150924 20 219 11.3 14.5 0.00 0.00 0.00 62 1012.9
20260509150421 20 211 8.0 11.3 0.00 0.00 0.00 62 1013.1
20260509145920 19 222 4.8 8.0 0.00 0.00 0.00 63 1013.1
20260509145419 18 210 11.3 12.9 0.00 0.00 0.00 65 1013.0
20260509144915 18 235 12.9 17.7 0.00 0.00 0.00 64 1013.2
20260509144412 18 195 4.8 8.0 0.00 0.00 0.00 64 1013.3
20260509143909 18 218 4.8 4.8 0.00 0.00 0.00 65 1013.3
20260509143407 18 242 4.8 8.0 0.00 0.00 0.00 65 1013.5
20260509142903 18 170 6.4 8.0 0.00 0.00 0.00 66 1013.6
20260509142359 17 246 1.6 1.6 0.00 0.00 0.00 67 1013.4
20260509141855 17 231 0.0 1.6 0.00 0.00 0.00 67 1013.5
20260509141352 17 184 6.4 9.7 0.00 0.00 0.00 67 1013.8
20260509140848 17 171 1.6 3.2 0.00 0.00 0.00 68 1013.5
20260509140346 17 225 8.0 11.3 0.00 0.00 0.00 68 1013.5
20260509135844 16 214 8.0 12.9 0.00 0.00 0.00 68 1013.4
20260509135341 16 188 9.7 12.9 0.00 0.00 0.00 69 1013.6
20260509134838 16 264 8.0 9.7 0.00 0.00 0.00 69 1013.7
20260509134335 16 207 8.0 9.7 0.00 0.00 0.00 69 1013.6
20260509133832 16 240 9.7 14.5 0.00 0.00 0.00 69 1013.6
20260509133329 16 223 8.0 9.7 0.00 0.00 0.00 69 1013.6
20260509132828 16 157 14.5 20.9 0.00 0.00 0.00 70 1013.6
20260509132326 16 220 4.8 9.7 0.00 0.00 0.00 69 1013.6
20260509131822 16 200 4.8 9.7 0.00 0.00 0.00 70 1013.5
20260509131319 15 194 8.0 12.9 0.00 0.00 0.00 71 1013.4
20260509130815 16 198 16.1 24.1 0.00 0.00 0.00 70 1013.7
20260509130311 15 196 9.7 14.5 0.00 0.00 0.00 71 1013.4
20260509125808 15 200 9.7 14.5 0.00 0.00 0.00 71 1013.6
20260509125307 15 214 11.3 16.1 0.00 0.00 0.00 71 1013.7
20260509124801 15 218 11.3 14.5 0.00 0.00 0.00 71 1013.8
20260509124257 15 212 9.7 20.9 0.00 0.00 0.00 71 1013.8
20260509123756 15 188 11.3 14.5 0.00 0.00 0.00 70 1013.7
20260509123253 15 159 3.2 3.2 0.00 0.00 0.00 71 1013.6
20260509122748 15 212 4.8 8.0 0.00 0.00 0.00 70 1013.3
20260509122245 15 189 11.3 14.5 0.00 0.00 0.00 70 1013.7
20260509121742 15 187 11.3 14.5 0.00 0.00 0.00 70 1013.5
20260509121239 15 187 9.7 12.9 0.00 0.00 0.00 70 1013.6
20260509120738 15 180 3.2 3.2 0.00 0.00 0.00 70 1013.6
20260509120235 15 151 6.4 9.7 0.00 0.00 0.00 70 1013.7
20260509115733 15 223 11.3 12.9 0.00 0.00 0.00 70 1013.4
20260509115230 15 248 9.7 12.9 0.00 0.00 0.00 69 1013.6
20260509114728 15 147 11.3 12.9 0.00 0.00 0.00 69 1013.8
20260509114226 15 228 9.7 12.9 0.00 0.00 0.00 68 1013.6
20260509113725 15 205 1.6 3.2 0.00 0.00 0.00 68 1013.6
20260509113221 15 155 4.8 8.0 0.00 0.00 0.00 67 1013.7
20260509112718 15 190 6.4 8.0 0.00 0.00 0.00 66 1013.6
20260509112215 15 178 6.4 8.0 0.00 0.00 0.00 64 1013.6
20260509111712 15 216 8.0 9.7 0.00 0.00 0.00 63 1013.4
20260509111209 15 189 4.8 4.8 0.00 0.00 0.00 63 1013.4
20260509110707 15 200 6.4 9.7 0.00 0.00 0.00 62 1013.3
20260509110203 15 246 6.4 8.0 0.00 0.00 0.00 62 1013.3
20260509105701 15 237 4.8 8.0 0.00 0.00 0.00 62 1013.4
20260509105158 15 198 4.8 4.8 0.00 0.00 0.00 61 1013.3
20260509104655 15 193 11.3 16.1 0.00 0.00 0.00 61 1013.2
20260509104152 15 154 9.7 14.5 0.00 0.00 0.00 60 1013.3
20260509103650 15 209 9.7 11.3 0.00 0.00 0.00 60 1013.3
20260509103148 15 182 8.0 11.3 0.00 0.00 0.00 60 1013.2
20260509102646 15 195 8.0 9.7 0.00 0.00 0.00 60 1013.1
20260509102142 15 193 8.0 11.3 0.00 0.00 0.00 60 1013.0
20260509101638 15 167 6.4 8.0 0.00 0.00 0.00 61 1013.0
20260509101136 15 192 6.4 8.0 0.00 0.00 0.00 61 1013.0
20260509100633 16 187 6.4 9.7 0.00 0.00 0.00 60 1013.0
20260509100130 16 201 6.4 8.0 0.00 0.00 0.00 61 1013.0
20260509095626 15 183 6.4 9.7 0.00 0.00 0.00 61 1013.0